Time,TemperatureF,DewpointF,PressureIn,WindDirection,WindDirectionDegrees,WindSpeedMPH,WindSpeedGustMPH,Humidity,HourlyPrecipIn,Conditions,Clouds,dailyrainin,SoftwareType,DateUTC
2013-01-28 00:04:00,44.5,42.0,30.17,NNW,332,10.0,13.0,91,0.00,,,0.00,Wunderground v.1.15,2013-01-28 08:04:00,
2013-01-28 00:09:00,44.8,42.3,30.18,NW,320,9.0,13.0,91,0.00,,,0.00,Wunderground v.1.15,2013-01-28 08:09:00,
2013-01-28 00:14:00,44.9,42.4,30.18,NNW,331,9.0,9.0,91,0.00,,,0.00,Wunderground v.1.15,2013-01-28 08:14:00,
2013-01-28 00:19:00,45.1,42.6,30.18,North,355,9.0,9.0,91,0.00,,,0.00,Wunderground v.1.15,2013-01-28 08:19:00,
2013-01-28 00:25:00,45.2,42.7,30.18,North,350,9.0,13.0,91,0.00,,,0.00,Wunderground v.1.15,2013-01-28 08:25:00,
2013-01-28 00:31:00,45.3,42.5,30.18,North,355,9.0,12.0,90,0.00,,,0.00,Wunderground v.1.15,2013-01-28 08:31:00,
2013-01-28 00:36:00,45.6,42.8,30.18,NNW,342,9.0,12.0,90,0.00,,,0.00,Wunderground v.1.15,2013-01-28 08:36:00,
2013-01-28 00:42:00,45.7,42.9,30.18,North,349,9.0,13.0,90,0.00,,,0.00,Wunderground v.1.15,2013-01-28 08:42:00,
2013-01-28 00:48:00,45.5,42.4,30.18,NNW,348,11.0,13.0,89,0.00,,,0.00,Wunderground v.1.15,2013-01-28 08:48:00,
2013-01-28 00:53:00,45.7,42.3,30.18,North,360,12.0,16.0,88,0.00,,,0.00,Wunderground v.1.15,2013-01-28 08:53:00,
2013-01-28 00:58:00,45.8,42.4,30.18,North,355,13.0,16.0,88,0.00,,,0.00,Wunderground v.1.15,2013-01-28 08:58:00,
2013-01-28 01:03:00,45.6,42.0,30.18,NNW,342,13.0,20.0,87,0.00,,,0.00,Wunderground v.1.15,2013-01-28 09:03:00,
2013-01-28 01:09:00,45.6,42.0,30.18,North,351,12.0,20.0,87,0.00,,,0.00,Wunderground v.1.15,2013-01-28 09:09:00,
2013-01-28 01:15:00,45.8,42.4,30.19,North,355,11.0,20.0,88,0.00,,,0.00,Wunderground v.1.15,2013-01-28 09:15:00,
2013-01-28 01:20:00,45.7,42.3,30.19,North,9,11.0,11.0,88,0.00,,,0.00,Wunderground v.1.15,2013-01-28 09:20:00,
2013-01-28 01:25:00,45.9,42.2,30.19,North,355,11.0,20.0,87,0.00,,,0.00,Wunderground v.1.15,2013-01-28 09:25:00,
2013-01-28 01:31:00,45.8,41.9,30.19,NNW,344,10.0,20.0,86,0.00,,,0.00,Wunderground v.1.15,2013-01-28 09:31:00,
2013-01-28 01:37:00,45.9,41.9,30.19,North,350,10.0,20.0,86,0.00,,,0.00,Wunderground v.1.15,2013-01-28 09:37:00,
2013-01-28 01:42:00,45.9,41.6,30.19,NNW,346,10.0,20.0,85,0.00,,,0.00,Wunderground v.1.15,2013-01-28 09:42:00,
2013-01-28 01:48:00,45.5,41.3,30.20,North,360,11.0,20.0,85,0.00,,,0.00,Wunderground v.1.15,2013-01-28 09:48:00,
2013-01-28 01:53:00,44.9,40.7,30.20,North,355,14.0,20.0,85,0.00,,,0.00,Wunderground v.1.15,2013-01-28 09:53:00,
2013-01-28 01:59:00,45.0,40.1,30.20,North,360,12.0,20.0,83,0.00,,,0.00,Wunderground v.1.15,2013-01-28 09:59:00,
2013-01-28 02:05:00,45.3,40.4,30.20,NNW,347,10.0,20.0,83,0.00,,,0.00,Wunderground v.1.15,2013-01-28 10:05:00,
2013-01-28 02:10:00,45.4,40.5,30.20,NNW,341,9.0,9.0,83,0.00,,,0.00,Wunderground v.1.15,2013-01-28 10:10:00,
2013-01-28 02:16:00,45.6,41.0,30.21,North,355,9.0,20.0,84,0.00,,,0.00,Wunderground v.1.15,2013-01-28 10:16:00,
2013-01-28 02:22:00,45.7,41.8,30.21,NNW,342,8.0,20.0,86,0.00,,,0.00,Wunderground v.1.15,2013-01-28 10:22:00,
2013-01-28 02:28:00,45.8,41.9,30.21,NNW,331,7.0,20.0,86,0.00,,,0.00,Wunderground v.1.15,2013-01-28 10:28:00,
2013-01-28 02:33:00,45.8,41.2,30.21,NNW,348,9.0,20.0,84,0.00,,,0.00,Wunderground v.1.15,2013-01-28 10:33:00,
2013-01-28 02:39:00,45.8,41.2,30.22,NNW,344,9.0,20.0,84,0.00,,,0.00,Wunderground v.1.15,2013-01-28 10:39:00,
2013-01-28 02:45:00,46.0,41.4,30.22,North,355,10.0,20.0,84,0.00,,,0.00,Wunderground v.1.15,2013-01-28 10:45:00,
2013-01-28 02:51:00,45.9,41.3,30.22,NNW,327,11.0,20.0,84,0.00,,,0.00,Wunderground v.1.15,2013-01-28 10:51:00,
2013-01-28 02:57:00,45.4,41.5,30.22,NNW,327,12.0,20.0,86,0.00,,,0.00,Wunderground v.1.15,2013-01-28 10:57:00,
2013-01-28 03:02:00,45.4,41.2,30.22,NW,315,13.0,20.0,85,0.00,,,0.00,Wunderground v.1.15,2013-01-28 11:02:00,
2013-01-28 03:08:00,45.4,41.2,30.22,NNW,331,11.0,20.0,85,0.00,,,0.00,Wunderground v.1.15,2013-01-28 11:08:00,
2013-01-28 03:13:00,45.4,41.2,30.22,NW,318,10.0,20.0,85,0.00,,,0.00,Wunderground v.1.15,2013-01-28 11:13:00,
2013-01-28 03:19:00,45.6,41.7,30.22,NNW,327,10.0,20.0,86,0.00,,,0.00,Wunderground v.1.15,2013-01-28 11:19:00,
2013-01-28 03:24:00,45.6,41.7,30.22,NW,312,10.0,20.0,86,0.00,,,0.00,Wunderground v.1.15,2013-01-28 11:24:00,
2013-01-28 03:29:00,45.7,42.1,30.22,NW,318,10.0,20.0,87,0.00,,,0.00,Wunderground v.1.15,2013-01-28 11:29:00,
2013-01-28 03:35:00,45.6,41.4,30.23,NW,317,12.0,20.0,85,0.00,,,0.00,Wunderground v.1.15,2013-01-28 11:35:00,
2013-01-28 03:41:00,45.2,41.3,30.23,NW,317,15.0,20.0,86,0.00,,,0.00,Wunderground v.1.15,2013-01-28 11:41:00,
2013-01-28 03:47:00,45.0,40.8,30.22,NW,319,14.0,20.0,85,0.00,,,0.00,Wunderground v.1.15,2013-01-28 11:47:00,
2013-01-28 03:53:00,45.2,40.7,30.22,NW,326,11.0,20.0,84,0.00,,,0.00,Wunderground v.1.15,2013-01-28 11:53:00,
2013-01-28 03:58:00,45.3,40.4,30.22,NNW,335,9.0,20.0,83,0.00,,,0.00,Wunderground v.1.15,2013-01-28 11:58:00,
2013-01-28 04:04:00,45.4,40.8,30.23,NNW,333,9.0,20.0,84,0.00,,,0.00,Wunderground v.1.15,2013-01-28 12:04:00,
2013-01-28 04:09:00,45.4,41.2,30.23,NW,324,7.0,20.0,85,0.00,,,0.00,Wunderground v.1.15,2013-01-28 12:09:00,
2013-01-28 04:15:00,45.4,41.5,30.22,NNW,334,6.0,20.0,86,0.00,,,0.00,Wunderground v.1.15,2013-01-28 12:15:00,
2013-01-28 04:20:00,45.5,41.6,30.22,NNW,333,6.0,6.0,86,0.00,,,0.00,Wunderground v.1.15,2013-01-28 12:20:00,
2013-01-28 04:25:00,45.5,41.9,30.22,NW,320,5.0,20.0,87,0.00,,,0.00,Wunderground v.1.15,2013-01-28 12:25:00,
2013-01-28 04:30:00,45.5,41.9,30.22,NNW,340,5.0,20.0,87,0.00,,,0.00,Wunderground v.1.15,2013-01-28 12:30:00,
2013-01-28 04:35:00,45.3,41.7,30.23,North,9,7.0,20.0,87,0.00,,,0.00,Wunderground v.1.15,2013-01-28 12:35:00,
2013-01-28 04:41:00,45.2,41.6,30.23,North,360,7.0,20.0,87,0.00,,,0.00,Wunderground v.1.15,2013-01-28 12:41:00,
2013-01-28 04:46:00,45.2,41.6,30.23,North,355,6.0,20.0,87,0.00,,,0.00,Wunderground v.1.15,2013-01-28 12:46:00,
2013-01-28 04:52:00,45.3,41.7,30.23,North,350,6.0,20.0,87,0.00,,,0.00,Wunderground v.1.15,2013-01-28 12:52:00,
2013-01-28 04:58:00,45.4,41.5,30.23,NNW,347,6.0,20.0,86,0.00,,,0.00,Wunderground v.1.15,2013-01-28 12:58:00,
2013-01-28 05:03:00,45.6,41.7,30.22,NNW,335,5.0,20.0,86,0.00,,,0.00,Wunderground v.1.15,2013-01-28 13:03:00,
2013-01-28 05:09:00,45.6,41.7,30.22,NW,325,5.0,20.0,86,0.00,,,0.00,Wunderground v.1.15,2013-01-28 13:09:00,
2013-01-28 05:15:00,45.8,41.9,30.22,NNW,335,5.0,20.0,86,0.00,,,0.00,Wunderground v.1.15,2013-01-28 13:15:00,
2013-01-28 05:21:00,45.7,41.4,30.23,NNW,329,6.0,20.0,85,0.00,,,0.00,Wunderground v.1.15,2013-01-28 13:21:00,
2013-01-28 05:27:00,45.8,41.2,30.23,NNW,330,7.0,20.0,84,0.00,,,0.00,Wunderground v.1.15,2013-01-28 13:27:00,
2013-01-28 05:32:00,45.8,40.9,30.23,NNW,337,7.0,20.0,83,0.00,,,0.00,Wunderground v.1.15,2013-01-28 13:32:00,
2013-01-28 05:37:00,45.8,40.9,30.23,North,360,6.0,20.0,83,0.00,,,0.00,Wunderground v.1.15,2013-01-28 13:37:00,
2013-01-28 05:43:00,45.7,40.8,30.23,NW,311,6.0,20.0,83,0.00,,,0.00,Wunderground v.1.15,2013-01-28 13:43:00,
2013-01-28 05:48:00,45.8,40.9,30.23,NW,321,6.0,20.0,83,0.00,,,0.00,Wunderground v.1.15,2013-01-28 13:48:00,
2013-01-28 05:54:00,45.8,40.9,30.23,NNW,339,7.0,20.0,83,0.00,,,0.00,Wunderground v.1.15,2013-01-28 13:54:00,
2013-01-28 05:59:00,45.8,41.9,30.23,NW,317,10.0,20.0,86,0.00,,,0.00,Wunderground v.1.15,2013-01-28 13:59:00,
2013-01-28 06:05:00,45.0,42.0,30.24,NW,313,10.0,20.0,89,0.00,,,0.00,Wunderground v.1.15,2013-01-28 14:05:00,
2013-01-28 06:11:00,44.5,41.7,30.24,WSW,257,9.0,20.0,90,0.00,,,0.00,Wunderground v.1.15,2013-01-28 14:11:00,
2013-01-28 06:17:00,44.4,41.9,30.24,NW,308,8.0,20.0,91,0.00,,,0.00,Wunderground v.1.15,2013-01-28 14:17:00,
2013-01-28 06:23:00,44.5,41.7,30.24,WNW,293,8.0,20.0,90,0.00,,,0.00,Wunderground v.1.15,2013-01-28 14:23:00,
2013-01-28 06:28:00,44.8,42.0,30.24,NW,315,8.0,20.0,90,0.00,,,0.00,Wunderground v.1.15,2013-01-28 14:28:00,
2013-01-28 06:33:00,45.1,42.3,30.24,WNW,296,7.0,20.0,90,0.00,,,0.00,Wunderground v.1.15,2013-01-28 14:33:00,
2013-01-28 06:38:00,45.1,42.3,30.24,WNW,302,6.0,20.0,90,0.00,,,0.00,Wunderground v.1.15,2013-01-28 14:38:00,
2013-01-28 06:43:00,45.2,42.4,30.24,NW,311,6.0,20.0,90,0.00,,,0.00,Wunderground v.1.15,2013-01-28 14:43:00,
2013-01-28 06:48:00,45.3,42.0,30.24,NW,316,8.0,20.0,88,0.00,,,0.01,Wunderground v.1.15,2013-01-28 14:48:00,
2013-01-28 06:54:00,45.5,41.6,30.25,NW,319,11.0,20.0,86,0.00,,,0.01,Wunderground v.1.15,2013-01-28 14:54:00,
2013-01-28 07:00:00,45.7,41.8,30.25,NNW,348,10.0,10.0,86,0.00,,,0.01,Wunderground v.1.15,2013-01-28 15:00:00,
2013-01-28 07:06:00,45.3,41.7,30.25,North,355,7.0,20.0,87,0.00,,,0.01,Wunderground v.1.15,2013-01-28 15:06:00,
2013-01-28 07:11:00,45.3,42.0,30.26,North,350,7.0,20.0,88,0.00,,,0.01,Wunderground v.1.15,2013-01-28 15:11:00,
2013-01-28 07:17:00,45.2,41.9,30.26,NNW,348,6.0,20.0,88,0.00,,,0.01,Wunderground v.1.15,2013-01-28 15:17:00,
2013-01-28 07:23:00,45.2,41.9,30.25,NNW,336,5.0,20.0,88,0.00,,,0.01,Wunderground v.1.15,2013-01-28 15:23:00,
2013-01-28 07:28:00,45.2,41.6,30.25,NW,321,6.0,20.0,87,0.00,,,0.01,Wunderground v.1.15,2013-01-28 15:28:00,
2013-01-28 07:33:00,45.6,41.7,30.26,NW,325,8.0,20.0,86,0.00,,,0.01,Wunderground v.1.15,2013-01-28 15:33:00,
2013-01-28 07:39:00,45.7,42.3,30.25,NNW,334,11.0,20.0,88,0.00,,,0.01,Wunderground v.1.15,2013-01-28 15:39:00,
2013-01-28 07:44:00,45.6,42.5,30.26,NW,317,12.0,20.0,89,0.00,,,0.01,Wunderground v.1.15,2013-01-28 15:44:00,
2013-01-28 07:50:00,45.4,42.1,30.26,NW,323,13.0,20.0,88,0.00,,,0.01,Wunderground v.1.15,2013-01-28 15:50:00,
2013-01-28 07:56:00,45.5,42.2,30.26,NW,314,12.0,20.0,88,0.00,,,0.01,Wunderground v.1.15,2013-01-28 15:56:00,
2013-01-28 08:01:00,45.6,42.3,30.26,NW,310,11.0,20.0,88,0.00,,,0.01,Wunderground v.1.15,2013-01-28 16:01:00,
2013-01-28 08:07:00,45.5,42.4,30.27,NW,315,12.0,20.0,89,0.00,,,0.01,Wunderground v.1.15,2013-01-28 16:07:00,
2013-01-28 08:13:00,44.9,42.1,30.27,NW,305,12.0,20.0,90,0.00,,,0.01,Wunderground v.1.15,2013-01-28 16:13:00,
2013-01-28 08:18:00,44.7,41.9,30.27,WNW,286,11.0,20.0,90,0.00,,,0.01,Wunderground v.1.15,2013-01-28 16:18:00,
2013-01-28 08:23:00,44.6,41.8,30.27,NW,306,9.0,20.0,90,0.00,,,0.01,Wunderground v.1.15,2013-01-28 16:23:00,
2013-01-28 08:28:00,44.7,42.2,30.27,NW,318,8.0,20.0,91,0.00,,,0.01,Wunderground v.1.15,2013-01-28 16:28:00,
2013-01-28 08:34:00,44.9,42.4,30.27,NW,316,10.0,20.0,91,0.00,,,0.01,Wunderground v.1.15,2013-01-28 16:34:00,
2013-01-28 08:39:00,44.4,42.2,30.28,NW,306,12.0,20.0,92,0.00,,,0.01,Wunderground v.1.15,2013-01-28 16:39:00,
2013-01-28 08:45:00,44.2,42.3,30.28,NW,316,10.0,20.0,93,0.00,,,0.01,Wunderground v.1.15,2013-01-28 16:45:00,
2013-01-28 08:51:00,44.5,42.6,30.28,NW,304,8.0,20.0,93,0.00,,,0.01,Wunderground v.1.15,2013-01-28 16:51:00,
2013-01-28 08:56:00,44.6,42.7,30.28,NW,320,8.0,20.0,93,0.00,,,0.01,Wunderground v.1.15,2013-01-28 16:56:00,
2013-01-28 09:02:00,44.7,42.5,30.28,NW,322,9.0,20.0,92,0.00,,,0.01,Wunderground v.1.15,2013-01-28 17:02:00,
2013-01-28 09:08:00,45.2,42.7,30.28,NW,324,10.0,20.0,91,0.00,,,0.01,Wunderground v.1.15,2013-01-28 17:08:00,
2013-01-28 09:13:00,45.1,42.6,30.28,North,350,9.0,20.0,91,0.00,,,0.01,Wunderground v.1.15,2013-01-28 17:13:00,
2013-01-28 09:19:00,44.7,42.5,30.29,NW,323,7.0,20.0,92,0.00,,,0.01,Wunderground v.1.15,2013-01-28 17:19:00,
2013-01-28 09:25:00,44.4,42.5,30.29,NW,322,7.0,20.0,93,0.00,,,0.01,Wunderground v.1.15,2013-01-28 17:25:00,
2013-01-28 09:31:00,44.6,43.0,30.29,NW,320,7.0,20.0,94,0.00,,,0.01,Wunderground v.1.15,2013-01-28 17:31:00,
2013-01-28 09:36:00,44.9,43.3,30.29,NW,319,7.0,20.0,94,0.00,,,0.01,Wunderground v.1.15,2013-01-28 17:36:00,
2013-01-28 09:42:00,45.1,43.2,30.29,NW,315,8.0,20.0,93,0.00,,,0.01,Wunderground v.1.15,2013-01-28 17:42:00,
2013-01-28 09:47:00,45.3,43.4,30.28,NNW,330,9.0,20.0,93,0.00,,,0.01,Wunderground v.1.15,2013-01-28 17:47:00,
2013-01-28 09:52:00,45.4,43.5,30.29,NW,316,9.0,20.0,93,0.00,,,0.01,Wunderground v.1.15,2013-01-28 17:52:00,
2013-01-28 09:58:00,45.4,43.5,30.29,NW,316,8.0,20.0,93,0.00,,,0.01,Wunderground v.1.15,2013-01-28 17:58:00,
2013-01-28 10:03:00,45.6,43.7,30.29,WNW,301,7.0,20.0,93,0.00,,,0.01,Wunderground v.1.15,2013-01-28 18:03:00,
2013-01-28 10:09:00,45.5,43.6,30.30,NW,311,8.0,20.0,93,0.00,,,0.01,Wunderground v.1.15,2013-01-28 18:09:00,
2013-01-28 10:14:00,45.6,43.4,30.30,NW,313,10.0,20.0,92,0.00,,,0.01,Wunderground v.1.15,2013-01-28 18:14:00,
2013-01-28 10:19:00,45.7,43.2,30.30,NW,313,11.0,20.0,91,0.00,,,0.01,Wunderground v.1.15,2013-01-28 18:19:00,
2013-01-28 10:25:00,45.2,43.0,30.30,NNW,329,14.0,20.0,92,0.00,,,0.01,Wunderground v.1.15,2013-01-28 18:25:00,
2013-01-28 10:30:00,45.0,43.1,30.30,NNW,336,13.0,13.0,93,0.00,,,0.01,Wunderground v.1.15,2013-01-28 18:30:00,
2013-01-28 10:35:00,44.9,43.3,30.30,NW,322,10.0,20.0,94,0.00,,,0.01,Wunderground v.1.15,2013-01-28 18:35:00,
2013-01-28 10:41:00,44.9,43.3,30.30,NW,319,9.0,11.0,94,0.00,,,0.01,Wunderground v.1.15,2013-01-28 18:41:00,
2013-01-28 10:47:00,44.9,43.3,30.31,NW,319,9.0,20.0,94,0.00,,,0.01,Wunderground v.1.15,2013-01-28 18:47:00,
2013-01-28 10:52:00,44.9,43.0,30.31,NW,323,10.0,20.0,93,0.00,,,0.01,Wunderground v.1.15,2013-01-28 18:52:00,
2013-01-28 10:58:00,45.3,43.4,30.31,NW,326,10.0,20.0,93,0.00,,,0.01,Wunderground v.1.15,2013-01-28 18:58:00,
2013-01-28 11:03:00,45.4,43.5,30.31,NW,317,10.0,20.0,93,0.00,,,0.01,Wunderground v.1.15,2013-01-28 19:03:00,
2013-01-28 11:09:00,44.9,42.7,30.31,NW,312,12.0,20.0,92,0.00,,,0.01,Wunderground v.1.15,2013-01-28 19:09:00,
2013-01-28 11:14:00,44.3,41.8,30.31,NW,310,11.0,20.0,91,0.00,,,0.01,Wunderground v.1.15,2013-01-28 19:14:00,
2013-01-28 11:20:00,44.8,42.6,30.31,NW,316,7.0,7.0,92,0.00,,,0.01,Wunderground v.1.15,2013-01-28 19:20:00,
2013-01-28 11:25:00,44.9,42.7,30.31,WNW,302,6.0,20.0,92,0.00,,,0.01,Wunderground v.1.15,2013-01-28 19:25:00,
2013-01-28 11:31:00,44.7,42.8,30.32,NW,308,9.0,20.0,93,0.00,,,0.01,Wunderground v.1.15,2013-01-28 19:31:00,
2013-01-28 11:36:00,44.9,43.3,30.32,NW,315,9.0,20.0,94,0.00,,,0.01,Wunderground v.1.15,2013-01-28 19:36:00,
2013-01-28 11:42:00,45.2,43.3,30.32,NW,309,8.0,20.0,93,0.00,,,0.01,Wunderground v.1.15,2013-01-28 19:42:00,
2013-01-28 11:48:00,45.1,43.2,30.32,WNW,284,8.0,20.0,93,0.00,,,0.01,Wunderground v.1.15,2013-01-28 19:48:00,
2013-01-28 11:53:00,45.4,43.5,30.31,NW,309,8.0,20.0,93,0.00,,,0.01,Wunderground v.1.15,2013-01-28 19:53:00,
2013-01-28 11:58:00,45.7,43.5,30.31,WNW,294,7.0,20.0,92,0.00,,,0.01,Wunderground v.1.15,2013-01-28 19:58:00,
2013-01-28 12:04:00,45.1,42.6,30.31,NNW,327,10.0,20.0,91,0.00,,,0.01,Wunderground v.1.15,2013-01-28 20:04:00,
2013-01-28 12:09:00,44.7,42.5,30.31,NW,311,11.0,20.0,92,0.00,,,0.01,Wunderground v.1.15,2013-01-28 20:09:00,
2013-01-28 12:15:00,44.9,43.0,30.31,NW,313,10.0,20.0,93,0.00,,,0.01,Wunderground v.1.15,2013-01-28 20:15:00,
2013-01-28 12:21:00,45.3,43.1,30.31,WNW,296,8.0,20.0,92,0.00,,,0.01,Wunderground v.1.15,2013-01-28 20:21:00,
2013-01-28 12:27:00,45.8,43.6,30.31,NW,314,9.0,20.0,92,0.00,,,0.01,Wunderground v.1.15,2013-01-28 20:27:00,
2013-01-28 12:33:00,45.8,43.0,30.31,NW,313,10.0,20.0,90,0.00,,,0.01,Wunderground v.1.15,2013-01-28 20:33:00,
2013-01-28 12:39:00,46.0,43.2,30.30,NW,308,11.0,20.0,90,0.00,,,0.01,Wunderground v.1.15,2013-01-28 20:39:00,
2013-01-28 12:45:00,45.6,42.8,30.30,WNW,292,13.0,20.0,90,0.00,,,0.01,Wunderground v.1.15,2013-01-28 20:45:00,
2013-01-28 12:50:00,44.9,42.7,30.31,NW,321,13.0,13.0,92,0.00,,,0.01,Wunderground v.1.15,2013-01-28 20:50:00,
2013-01-28 12:56:00,44.6,42.1,30.30,NNW,331,11.0,20.0,91,0.00,,,0.01,Wunderground v.1.15,2013-01-28 20:56:00,
2013-01-28 13:01:00,45.0,42.5,30.30,NW,313,11.0,20.0,91,0.00,,,0.01,Wunderground v.1.15,2013-01-28 21:01:00,
2013-01-28 13:06:00,45.6,42.8,30.30,NW,306,10.0,20.0,90,0.00,,,0.01,Wunderground v.1.15,2013-01-28 21:06:00,
2013-01-28 13:12:00,45.8,43.0,30.30,WNW,292,9.0,20.0,90,0.00,,,0.01,Wunderground v.1.15,2013-01-28 21:12:00,
2013-01-28 13:17:00,46.0,43.2,30.29,NW,304,8.0,20.0,90,0.00,,,0.01,Wunderground v.1.15,2013-01-28 21:17:00,
2013-01-28 13:23:00,46.1,43.3,30.30,WNW,292,7.0,20.0,90,0.00,,,0.01,Wunderground v.1.15,2013-01-28 21:23:00,
2013-01-28 13:29:00,46.1,43.0,30.29,NW,321,8.0,20.0,89,0.00,,,0.01,Wunderground v.1.15,2013-01-28 21:29:00,
2013-01-28 13:35:00,46.1,42.4,30.29,WNW,298,9.0,20.0,87,0.00,,,0.01,Wunderground v.1.15,2013-01-28 21:35:00,
2013-01-28 13:40:00,46.4,43.0,30.30,WSW,240,8.0,8.0,88,0.00,,,0.01,Wunderground v.1.15,2013-01-28 21:40:00,
2013-01-28 13:45:00,46.4,43.0,30.30,NW,309,7.0,20.0,88,0.00,,,0.01,Wunderground v.1.15,2013-01-28 21:45:00,
2013-01-28 13:51:00,46.5,43.1,30.30,NW,323,8.0,9.0,88,0.00,,,0.01,Wunderground v.1.15,2013-01-28 21:51:00,
2013-01-28 13:57:00,46.3,42.6,30.30,WNW,293,7.0,20.0,87,0.00,,,0.01,Wunderground v.1.15,2013-01-28 21:57:00,
2013-01-28 14:03:00,46.6,42.9,30.30,WNW,300,8.0,20.0,87,0.00,,,0.01,Wunderground v.1.15,2013-01-28 22:03:00,
2013-01-28 14:09:00,46.6,43.2,30.31,NW,312,9.0,20.0,88,0.00,,,0.01,Wunderground v.1.15,2013-01-28 22:09:00,
2013-01-28 14:14:00,46.2,42.8,30.31,WNW,300,11.0,20.0,88,0.00,,,0.01,Wunderground v.1.15,2013-01-28 22:14:00,
2013-01-28 14:19:00,46.1,43.0,30.31,NW,314,11.0,20.0,89,0.00,,,0.01,Wunderground v.1.15,2013-01-28 22:19:00,
2013-01-28 14:25:00,45.9,42.5,30.31,NW,314,10.0,20.0,88,0.00,,,0.01,Wunderground v.1.15,2013-01-28 22:25:00,
2013-01-28 14:30:00,46.1,42.7,30.31,NW,316,9.0,20.0,88,0.00,,,0.01,Wunderground v.1.15,2013-01-28 22:30:00,
2013-01-28 14:36:00,46.1,42.7,30.31,WNW,290,8.0,20.0,88,0.00,,,0.01,Wunderground v.1.15,2013-01-28 22:36:00,
2013-01-28 14:42:00,45.9,42.5,30.31,WNW,292,9.0,20.0,88,0.00,,,0.01,Wunderground v.1.15,2013-01-28 22:42:00,
2013-01-28 14:47:00,45.9,42.2,30.30,West,280,8.0,20.0,87,0.00,,,0.01,Wunderground v.1.15,2013-01-28 22:47:00,
2013-01-28 14:52:00,45.9,42.2,30.30,West,276,7.0,20.0,87,0.00,,,0.01,Wunderground v.1.15,2013-01-28 22:52:00,
2013-01-28 14:58:00,46.1,42.4,30.30,WNW,294,8.0,20.0,87,0.00,,,0.01,Wunderground v.1.15,2013-01-28 22:58:00,
2013-01-28 15:03:00,46.1,42.7,30.31,West,259,8.0,20.0,88,0.00,,,0.01,Wunderground v.1.15,2013-01-28 23:03:00,
2013-01-28 15:09:00,45.8,42.7,30.31,West,270,8.0,20.0,89,0.00,,,0.01,Wunderground v.1.15,2013-01-28 23:09:00,
2013-01-28 15:14:00,45.8,43.0,30.31,WSW,257,7.0,20.0,90,0.00,,,0.01,Wunderground v.1.15,2013-01-28 23:14:00,
2013-01-28 15:19:00,46.0,43.2,30.31,SW,229,6.0,20.0,90,0.00,,,0.01,Wunderground v.1.15,2013-01-28 23:19:00,
2013-01-28 15:25:00,46.0,43.2,30.31,WNW,297,6.0,20.0,90,0.00,,,0.01,Wunderground v.1.15,2013-01-28 23:25:00,
2013-01-28 15:30:00,45.7,42.9,30.31,West,259,7.0,20.0,90,0.00,,,0.01,Wunderground v.1.15,2013-01-28 23:30:00,
2013-01-28 15:35:00,45.3,42.8,30.32,West,263,7.0,20.0,91,0.00,,,0.01,Wunderground v.1.15,2013-01-28 23:35:00,
2013-01-28 15:41:00,44.7,42.5,30.32,WNW,292,7.0,12.0,92,0.00,,,0.01,Wunderground v.1.15,2013-01-28 23:41:00,
2013-01-28 15:46:00,44.7,42.5,30.32,West,277,7.0,20.0,92,0.00,,,0.01,Wunderground v.1.15,2013-01-28 23:46:00,
2013-01-28 15:51:00,44.8,42.6,30.32,NW,315,7.0,20.0,92,0.00,,,0.01,Wunderground v.1.15,2013-01-28 23:51:00,
2013-01-28 15:56:00,44.8,42.6,30.32,WNW,287,7.0,20.0,92,0.00,,,0.01,Wunderground v.1.15,2013-01-28 23:56:00,
2013-01-28 16:02:00,45.1,42.3,30.33,NW,311,7.0,20.0,90,0.00,,,0.01,Wunderground v.1.15,2013-01-29 00:02:00,
2013-01-28 16:07:00,45.4,42.3,30.33,NW,305,8.0,20.0,89,0.00,,,0.01,Wunderground v.1.15,2013-01-29 00:07:00,
2013-01-28 16:13:00,45.7,42.6,30.33,West,270,7.0,20.0,89,0.00,,,0.01,Wunderground v.1.15,2013-01-29 00:13:00,
2013-01-28 16:19:00,45.6,42.3,30.33,NW,314,6.0,20.0,88,0.00,,,0.01,Wunderground v.1.15,2013-01-29 00:19:00,
2013-01-28 16:24:00,45.6,42.3,30.33,WSW,247,7.0,20.0,88,0.00,,,0.01,Wunderground v.1.15,2013-01-29 00:24:00,
2013-01-28 16:29:00,45.6,42.5,30.33,WNW,298,7.0,20.0,89,0.00,,,0.01,Wunderground v.1.15,2013-01-29 00:29:00,
2013-01-28 16:35:00,44.9,42.4,30.33,SW,232,8.0,20.0,91,0.00,,,0.01,Wunderground v.1.15,2013-01-29 00:35:00,
2013-01-28 16:40:00,44.8,42.6,30.33,West,267,8.0,20.0,92,0.00,,,0.01,Wunderground v.1.15,2013-01-29 00:40:00,
2013-01-28 16:45:00,44.7,42.8,30.33,West,259,9.0,20.0,93,0.00,,,0.01,Wunderground v.1.15,2013-01-29 00:45:00,
2013-01-28 16:50:00,44.3,42.4,30.33,NW,304,9.0,20.0,93,0.00,,,0.01,Wunderground v.1.15,2013-01-29 00:50:00,
2013-01-28 16:56:00,43.9,42.3,30.33,WNW,290,9.0,20.0,94,0.00,,,0.01,Wunderground v.1.15,2013-01-29 00:56:00,
2013-01-28 17:02:00,43.7,42.4,30.33,WNW,292,8.0,20.0,95,0.00,,,0.01,Wunderground v.1.15,2013-01-29 01:02:00,
2013-01-28 17:08:00,43.8,42.2,30.33,WNW,302,6.0,20.0,94,0.00,,,0.01,Wunderground v.1.15,2013-01-29 01:08:00,
2013-01-28 17:13:00,43.8,42.5,30.33,West,262,5.0,20.0,95,0.00,,,0.01,Wunderground v.1.15,2013-01-29 01:13:00,
2013-01-28 17:19:00,44.0,42.7,30.33,West,276,5.0,20.0,95,0.00,,,0.01,Wunderground v.1.15,2013-01-29 01:19:00,
2013-01-28 17:25:00,44.2,42.6,30.33,West,261,6.0,20.0,94,0.00,,,0.01,Wunderground v.1.15,2013-01-29 01:25:00,
2013-01-28 17:30:00,44.4,42.8,30.34,WSW,240,5.0,5.0,94,0.00,,,0.01,Wunderground v.1.15,2013-01-29 01:30:00,
2013-01-28 17:36:00,44.6,43.0,30.34,NW,317,5.0,20.0,94,0.00,,,0.01,Wunderground v.1.15,2013-01-29 01:36:00,
2013-01-28 17:42:00,44.5,42.6,30.34,NW,317,8.0,20.0,93,0.00,,,0.01,Wunderground v.1.15,2013-01-29 01:42:00,
2013-01-28 17:47:00,44.4,42.5,30.34,NNW,342,9.0,20.0,93,0.00,,,0.01,Wunderground v.1.15,2013-01-29 01:47:00,
2013-01-28 17:52:00,44.2,42.3,30.34,WNW,298,9.0,20.0,93,0.00,,,0.01,Wunderground v.1.15,2013-01-29 01:52:00,
2013-01-28 17:57:00,44.3,42.4,30.34,West,279,7.0,20.0,93,0.00,,,0.01,Wunderground v.1.15,2013-01-29 01:57:00,
2013-01-28 18:03:00,44.4,42.5,30.34,WSW,255,6.0,20.0,93,0.00,,,0.01,Wunderground v.1.15,2013-01-29 02:03:00,
2013-01-28 18:09:00,44.1,42.2,30.34,WSW,248,7.0,20.0,93,0.00,,,0.01,Wunderground v.1.15,2013-01-29 02:09:00,
2013-01-28 18:14:00,44.0,42.1,30.33,SW,229,7.0,20.0,93,0.00,,,0.01,Wunderground v.1.15,2013-01-29 02:14:00,
2013-01-28 18:20:00,43.9,42.3,30.33,WSW,240,6.0,20.0,94,0.00,,,0.01,Wunderground v.1.15,2013-01-29 02:20:00,
2013-01-28 18:25:00,44.0,42.4,30.34,WSW,248,6.0,20.0,94,0.00,,,0.01,Wunderground v.1.15,2013-01-29 02:25:00,
2013-01-28 18:30:00,44.1,42.2,30.34,WSW,244,7.0,20.0,93,0.00,,,0.01,Wunderground v.1.15,2013-01-29 02:30:00,
2013-01-28 18:36:00,44.4,42.8,30.34,West,265,7.0,20.0,94,0.00,,,0.01,Wunderground v.1.15,2013-01-29 02:36:00,
2013-01-28 18:42:00,44.4,42.8,30.34,WSW,250,8.0,20.0,94,0.00,,,0.01,Wunderground v.1.15,2013-01-29 02:42:00,
2013-01-28 18:47:00,44.4,42.8,30.34,West,261,8.0,20.0,94,0.00,,,0.01,Wunderground v.1.15,2013-01-29 02:47:00,
2013-01-28 18:52:00,44.5,42.9,30.34,SW,225,7.0,20.0,94,0.00,,,0.01,Wunderground v.1.15,2013-01-29 02:52:00,
2013-01-28 18:58:00,44.6,43.0,30.34,West,275,7.0,20.0,94,0.00,,,0.01,Wunderground v.1.15,2013-01-29 02:58:00,
2013-01-28 19:04:00,44.6,43.0,30.34,West,277,8.0,20.0,94,0.00,,,0.01,Wunderground v.1.15,2013-01-29 03:04:00,
2013-01-28 19:09:00,44.7,43.1,30.35,West,279,9.0,20.0,94,0.00,,,0.01,Wunderground v.1.15,2013-01-29 03:09:00,
2013-01-28 19:15:00,43.9,42.0,30.35,WSW,251,9.0,20.0,93,0.00,,,0.01,Wunderground v.1.15,2013-01-29 03:15:00,
2013-01-28 19:21:00,43.4,41.8,30.35,WNW,291,8.0,20.0,94,0.00,,,0.01,Wunderground v.1.15,2013-01-29 03:21:00,
2013-01-28 19:26:00,43.5,42.2,30.35,WSW,246,6.0,20.0,95,0.00,,,0.01,Wunderground v.1.15,2013-01-29 03:26:00,
2013-01-28 19:31:00,43.7,42.4,30.35,West,278,5.0,20.0,95,0.00,,,0.01,Wunderground v.1.15,2013-01-29 03:31:00,
2013-01-28 19:37:00,44.0,42.7,30.35,WNW,302,5.0,20.0,95,0.00,,,0.01,Wunderground v.1.15,2013-01-29 03:37:00,
2013-01-28 19:42:00,44.1,42.8,30.35,WNW,294,6.0,20.0,95,0.00,,,0.01,Wunderground v.1.15,2013-01-29 03:42:00,
2013-01-28 19:48:00,44.0,42.4,30.35,NW,309,5.0,20.0,94,0.00,,,0.01,Wunderground v.1.15,2013-01-29 03:48:00,
2013-01-28 19:53:00,44.2,42.6,30.35,West,271,4.0,20.0,94,0.00,,,0.01,Wunderground v.1.15,2013-01-29 03:53:00,
2013-01-28 19:59:00,44.5,43.2,30.35,WSW,251,4.0,20.0,95,0.00,,,0.01,Wunderground v.1.15,2013-01-29 03:59:00,
2013-01-28 20:04:00,44.7,43.1,30.35,West,269,5.0,20.0,94,0.00,,,0.01,Wunderground v.1.15,2013-01-29 04:04:00,
2013-01-28 20:10:00,44.8,42.9,30.35,WSW,258,6.0,6.0,93,0.00,,,0.01,Wunderground v.1.15,2013-01-29 04:10:00,
2013-01-28 20:15:00,44.9,43.0,30.35,WSW,254,5.0,20.0,93,0.00,,,0.01,Wunderground v.1.15,2013-01-29 04:15:00,
2013-01-28 20:20:00,45.0,43.1,30.35,NW,317,4.0,20.0,93,0.00,,,0.01,Wunderground v.1.15,2013-01-29 04:20:00,
2013-01-28 20:25:00,45.1,42.9,30.35,West,263,4.0,20.0,92,0.00,,,0.01,Wunderground v.1.15,2013-01-29 04:25:00,
2013-01-28 20:30:00,45.2,43.0,30.35,WNW,300,5.0,5.0,92,0.00,,,0.01,Wunderground v.1.15,2013-01-29 04:30:00,
2013-01-28 20:36:00,45.3,43.1,30.35,WNW,294,5.0,20.0,92,0.00,,,0.01,Wunderground v.1.15,2013-01-29 04:36:00,
2013-01-28 20:42:00,45.2,43.0,30.35,NW,309,8.0,20.0,92,0.00,,,0.01,Wunderground v.1.15,2013-01-29 04:42:00,
2013-01-28 20:48:00,45.0,43.1,30.35,NW,313,9.0,20.0,93,0.00,,,0.01,Wunderground v.1.15,2013-01-29 04:48:00,
2013-01-28 20:54:00,44.6,43.0,30.35,NW,304,10.0,20.0,94,0.00,,,0.02,Wunderground v.1.15,2013-01-29 04:54:00,
2013-01-28 21:01:00,44.1,42.8,30.36,WNW,301,12.0,20.0,95,0.00,,,0.02,Wunderground v.1.15,2013-01-29 05:01:00,
2013-01-28 21:02:00,44.0,42.7,30.36,NW,315,12.0,20.0,95,0.00,,,0.02,Wunderground v.1.15,2013-01-29 05:02:00,
2013-01-28 21:05:00,43.9,42.6,30.36,NW,323,12.0,20.0,95,0.00,,,0.02,Wunderground v.1.15,2013-01-29 05:05:00,
2013-01-28 21:09:00,43.7,42.4,30.36,NW,317,11.0,20.0,95,0.00,,,0.02,Wunderground v.1.15,2013-01-29 05:09:00,
2013-01-28 21:15:00,43.8,42.7,30.36,WNW,300,8.0,20.0,96,0.00,,,0.02,Wunderground v.1.15,2013-01-29 05:15:00,
2013-01-28 21:21:00,43.9,42.8,30.36,NW,305,6.0,20.0,96,0.00,,,0.02,Wunderground v.1.15,2013-01-29 05:21:00,
2013-01-28 21:27:00,44.0,42.9,30.36,NW,307,6.0,20.0,96,0.00,,,0.02,Wunderground v.1.15,2013-01-29 05:27:00,
2013-01-28 21:32:00,44.1,43.0,30.36,WNW,300,5.0,20.0,96,0.00,,,0.02,Wunderground v.1.15,2013-01-29 05:32:00,
2013-01-28 21:38:00,44.1,42.8,30.36,West,273,7.0,20.0,95,0.00,,,0.02,Wunderground v.1.15,2013-01-29 05:38:00,
2013-01-28 21:44:00,44.3,43.0,30.36,NNW,330,8.0,20.0,95,0.00,,,0.02,Wunderground v.1.15,2013-01-29 05:44:00,
2013-01-28 21:49:00,44.0,42.4,30.36,NW,311,8.0,20.0,94,0.00,,,0.02,Wunderground v.1.15,2013-01-29 05:49:00,
2013-01-28 21:55:00,43.8,42.5,30.36,WNW,298,8.0,20.0,95,0.00,,,0.02,Wunderground v.1.15,2013-01-29 05:55:00,
2013-01-28 22:01:00,43.7,42.4,30.36,NW,309,9.0,20.0,95,0.00,,,0.02,Wunderground v.1.15,2013-01-29 06:01:00,
2013-01-28 22:06:00,44.0,42.7,30.36,NW,315,9.0,20.0,95,0.00,,,0.02,Wunderground v.1.15,2013-01-29 06:06:00,
2013-01-28 22:11:00,44.1,42.8,30.36,WNW,300,9.0,20.0,95,0.00,,,0.02,Wunderground v.1.15,2013-01-29 06:11:00,
2013-01-28 22:16:00,44.0,42.7,30.36,NW,305,7.0,20.0,95,0.00,,,0.02,Wunderground v.1.15,2013-01-29 06:16:00,
2013-01-28 22:22:00,44.0,42.7,30.36,West,271,5.0,20.0,95,0.00,,,0.02,Wunderground v.1.15,2013-01-29 06:22:00,
2013-01-28 22:27:00,44.2,42.9,30.36,WNW,289,4.0,20.0,95,0.00,,,0.02,Wunderground v.1.15,2013-01-29 06:27:00,
2013-01-28 22:33:00,44.6,43.3,30.36,WNW,294,6.0,20.0,95,0.00,,,0.02,Wunderground v.1.15,2013-01-29 06:33:00,
2013-01-28 22:39:00,44.2,42.6,30.36,West,281,8.0,20.0,94,0.00,,,0.02,Wunderground v.1.15,2013-01-29 06:39:00,
2013-01-28 22:45:00,44.3,43.0,30.36,WNW,303,8.0,20.0,95,0.00,,,0.02,Wunderground v.1.15,2013-01-29 06:45:00,
2013-01-28 22:51:00,43.9,42.3,30.36,NW,311,7.0,20.0,94,0.00,,,0.02,Wunderground v.1.15,2013-01-29 06:51:00,
2013-01-28 22:56:00,43.8,42.5,30.36,WNW,302,7.0,20.0,95,0.00,,,0.02,Wunderground v.1.15,2013-01-29 06:56:00,
2013-01-28 23:01:00,43.8,42.5,30.37,NW,311,8.0,20.0,95,0.00,,,0.02,Wunderground v.1.15,2013-01-29 07:01:00,
2013-01-28 23:07:00,43.5,42.2,30.37,WNW,303,8.0,20.0,95,0.00,,,0.02,Wunderground v.1.15,2013-01-29 07:07:00,
2013-01-28 23:12:00,43.1,41.8,30.37,NW,313,7.0,20.0,95,0.00,,,0.02,Wunderground v.1.15,2013-01-29 07:12:00,
2013-01-28 23:18:00,43.4,42.3,30.36,SW,227,6.0,20.0,96,0.00,,,0.02,Wunderground v.1.15,2013-01-29 07:18:00,
2013-01-28 23:24:00,43.7,42.4,30.36,West,264,5.0,20.0,95,0.00,,,0.02,Wunderground v.1.15,2013-01-29 07:24:00,
2013-01-28 23:30:00,44.0,42.7,30.36,WSW,239,4.0,20.0,95,0.00,,,0.02,Wunderground v.1.15,2013-01-29 07:30:00,
2013-01-28 23:36:00,44.3,43.0,30.36,WNW,299,4.0,20.0,95,0.00,,,0.02,Wunderground v.1.15,2013-01-29 07:36:00,
2013-01-28 23:42:00,44.5,42.9,30.36,WSW,238,5.0,20.0,94,0.00,,,0.02,Wunderground v.1.15,2013-01-29 07:42:00,
2013-01-28 23:47:00,44.4,42.5,30.37,West,280,7.0,20.0,93,0.00,,,0.02,Wunderground v.1.15,2013-01-29 07:47:00,
2013-01-28 23:53:00,44.4,42.5,30.37,NW,306,8.0,20.0,93,0.00,,,0.02,Wunderground v.1.15,2013-01-29 07:53:00,
2013-01-28 23:59:00,44.6,42.4,30.37,NW,317,9.0,20.0,92,0.00,,,0.02,Wunderground v.1.15,2013-01-29 07:59:00,